[[{"header":{"parameterUnit":"m.s-1","parameterCategory":1,"la1":30.2991,"la2":30.254,"lo1":-89.0895,"lo2":-89.0444,"dy":0.0017,"dx":0.0017,"nx":28,"ny":28,"refTime":"2025-06-06T21:00:00:Z","depth":0,"parameterNumber":2,"parameterNumberName":"U-component_of_WINDS"},"data":[0,0,0,0,0,0,0,0,0,0,0,0,0,0,0,0,0,0,0,0,0,0,0,0,0,0,0,0,0,0,0,0,0,0,0,0,0,0,0,0,0,0,0,0,0,0,0,0,0,0,0,0,0,0,0,0,0,0,3.7947,3.7948,0,3.8038,3.8039,3.804,3.8069,3.8069,3.8068,3.8068,3.8163,3.8166,3.8169,0,0,0,0,0,0,0,0,0,0,0,0,0,3.7799,3.7802,3.7947,3.7948,3.7949,3.8038,3.8039,3.8041,3.8069,3.8069,3.8068,3.8068,3.8162,3.8166,3.8169,0,0,0,0,0,0,0,0,0,0,0,0,0,3.7874,3.7803,3.7947,3.7974,3.7978,3.8038,3.804,3.8041,3.8069,3.8069,3.8068,3.8067,3.8161,3.8165,3.817,3.821,0,0,3.8183,3.8185,0,0,0,0,0,0,0,0,3.787,3.788,3.7969,3.7972,3.7976,3.8042,3.8022,3.8098,3.807,3.8035,3.8068,3.8067,3.8123,3.8131,3.8149,3.8214,3.8218,3.8184,3.8186,3.8188,3.8189,0,0,0,0,0,0,0,3.7865,3.7876,3.7983,3.797,3.7975,3.7983,3.7993,3.8037,3.8082,3.8038,3.804,3.805,3.8125,3.8145,3.8152,3.822,3.8183,3.8187,3.819,3.8192,3.8323,3.8324,0,0,0,0,0,0,3.7855,3.7871,3.798,3.7986,3.792,3.7986,3.7997,3.8021,3.8081,3.809,3.8051,3.8051,3.8138,3.8147,3.8155,3.8207,3.8188,3.8192,3.8195,3.8322,3.8323,3.8324,0,0,0,0,0,0,3.7851,3.7864,3.7977,3.7929,3.7944,3.7989,3.8016,3.8024,3.8043,3.8091,3.8099,3.8063,3.8138,3.8149,3.8196,3.821,3.8194,3.8198,3.8321,3.8323,3.8324,3.8309,0,0,0,0,0,0,3.7847,3.7863,3.7878,3.7929,3.7947,3.8015,3.8017,3.8026,3.8051,3.8052,3.8104,3.8112,3.8138,3.8189,3.8201,3.8216,3.8202,3.832,3.8322,3.8323,3.8309,3.831,3.8311,0,0,0,0,0,3.7842,3.7871,3.7879,3.7892,3.7967,3.8016,3.8026,3.8054,3.8052,3.8068,3.8098,3.8111,3.8207,3.8194,3.8207,3.8224,3.8319,3.8321,3.8323,3.8308,3.831,3.8311,0,0,0,0,0,0,3.782,3.7878,3.7887,3.7934,3.797,3.8021,3.8042,3.8055,3.8093,3.8093,3.8127,3.8139,3.8183,3.8208,3.8193,3.8266,3.8264,3.8268,3.8248,3.825,3.8251,3.8244,3.8205,0,0,0,0,0,3.782,3.7855,3.7904,3.794,3.7958,3.7996,3.8019,3.8038,3.8077,3.8092,3.8126,3.8164,3.8203,3.8228,3.8266,3.8313,3.8325,3.8331,3.8332,3.8332,3.8336,3.8363,3.8366,3.833,3.833,3.833,0,0,3.7822,3.7858,3.7878,3.7937,3.7967,3.8003,3.8009,3.8047,3.8074,3.8098,3.8144,3.8171,3.8215,3.8262,3.8285,3.8285,3.8349,3.8335,3.8335,3.8338,3.8365,3.8368,3.8371,3.8332,3.8331,3.8331,0,0,3.7843,3.7873,3.7907,3.7937,3.7983,3.8008,3.8016,3.8066,3.8084,3.8131,3.815,3.8183,3.8249,3.828,3.8304,3.8338,3.8351,3.8349,3.8355,3.8381,3.8384,3.8386,3.8398,3.8402,3.8353,3.8353,3.8353,0,3.7839,3.7893,3.7923,3.7959,3.7985,3.8009,3.8043,3.8071,3.8127,3.8144,3.8143,3.8227,3.8259,3.8313,3.8321,3.834,3.8351,3.8344,3.8381,3.8384,3.8387,3.8399,3.8403,3.8352,3.8352,3.8352,3.8353,0,3.7887,3.7924,3.7946,3.7999,3.8027,3.8062,3.8098,3.8123,3.8139,3.8165,3.8213,3.8252,3.8298,3.8313,3.833,3.837,3.8369,3.8374,3.8372,3.8389,3.8401,3.8406,3.8352,3.8352,3.8352,3.8352,0,0,3.7896,3.7965,3.7973,3.7997,3.8049,3.8079,3.8116,3.8161,3.8182,3.822,3.8252,3.8307,3.8312,3.834,3.8361,3.8383,3.8407,3.8386,3.8387,3.8388,3.8455,3.845,3.8455,3.8416,3.8417,3.8418,3.8451,0,3.7924,3.799,3.8018,3.8071,3.8106,3.813,3.8162,3.8198,3.8223,3.8257,3.8285,3.8324,3.8328,3.8345,3.8368,3.8399,3.8421,3.8397,3.8447,3.8448,3.8435,3.8461,3.8457,3.8486,3.8456,3.8457,3.8457,0,3.7965,3.8003,3.8059,3.8108,3.8123,3.8152,3.8196,3.8228,3.8269,3.8286,3.8317,3.8336,3.8377,3.8372,3.8428,3.8412,3.8434,3.8452,3.8454,3.8459,3.8453,3.8467,3.8496,3.85,3.8465,3.8464,3.8464,0,3.7966,3.8031,3.8074,3.8094,3.8151,3.8171,3.8195,3.8236,3.8262,3.83,3.8317,3.836,3.8384,3.8417,3.8448,3.8442,3.8501,3.8499,3.8517,3.8516,3.8528,3.8527,3.856,3.8542,3.8542,3.8542,3.8542,0,3.7994,3.8028,3.8075,3.8101,3.814,3.8172,3.821,3.8237,3.8273,3.8305,3.8328,3.8358,3.8396,3.8431,3.8456,3.8499,3.8509,3.8524,3.8531,3.8522,3.852,3.8537,3.8536,3.8543,3.8543,3.8543,3.8543,0,3.8002,3.8035,3.8083,3.8133,3.8146,3.8173,3.8216,3.8243,3.8269,3.831,3.8321,3.8363,3.8406,3.844,3.8495,3.8512,3.8557,3.8564,3.8542,3.8546,3.8561,3.8559,3.8606,3.8614,3.8591,3.8591,3.8591,0,3.8017,3.8044,3.8097,3.812,3.8145,3.8181,3.8207,3.824,3.8267,3.8316,3.8337,3.8381,3.8418,3.8484,3.852,3.8563,3.8571,3.8585,3.8578,3.8569,3.8571,3.8569,3.8572,3.8585,3.8585,3.8585,3.8585,0,3.8041,3.8056,3.8093,3.8136,3.8166,3.8201,3.8237,3.8255,3.8294,3.8323,3.8366,3.8395,3.8451,3.8495,3.8541,3.8568,3.8583,3.8587,3.8594,3.8586,3.8572,3.858,3.8544,3.8586,3.8586,3.8586,3.8586,3.8586,3.8054,3.8078,3.812,3.816,3.819,3.8223,3.8251,3.8281,3.8317,3.8366,3.8383,3.8428,3.8469,3.8533,3.856,3.8596,3.8597,3.8606,3.8608,3.861,3.8609,3.8566,3.8604,3.8604,3.8604,3.8604,3.8604,0,3.8079,3.8107,3.8143,3.8193,3.8224,3.8236,3.8276,3.8302,3.8341,3.8378,3.8414,3.8464,3.8506,3.8545,3.859,3.8611,3.8619,3.8622,3.862,3.8626,3.8605,3.8595,3.8614,3.8614,3.8614,3.8614,3.8614,3.8614,3.8096,3.8138,3.8158,3.8217,3.8245,3.8288,3.831,3.8341,3.8371,3.8425,3.846,3.8486,3.8524,3.8571,3.8611,3.8621,3.8637,3.8637,3.8649,3.8629,3.8628,3.8626,3.8617,3.864,3.864,3.8667,3.8668,3.8668]},{"header":{"parameterUnit":"m.s-1","parameterCategory":1,"la1":30.2991,"la2":30.254,"lo1":-89.0895,"lo2":-89.0444,"dy":0.0017,"dx":0.0017,"nx":28,"ny":28,"refTime":"2025-06-06T21:00:00:Z","depth":0,"parameterNumber":3,"parameterNumberName":"V-component_of_WINDS"},"data":[0,0,0,0,0,0,0,0,0,0,0,0,0,0,0,0,0,0,0,0,0,0,0,0,0,0,0,0,0,0,0,0,0,0,0,0,0,0,0,0,0,0,0,0,0,0,0,0,0,0,0,0,0,0,0,0,0,0,3.4816,3.4817,0,3.4859,3.486,3.486,3.4871,3.4871,3.4871,3.487,3.491,3.4911,3.4912,0,0,0,0,0,0,0,0,0,0,0,0,0,3.4739,3.4741,3.4816,3.4817,3.4817,3.4859,3.486,3.486,3.4871,3.4871,3.4871,3.487,3.4909,3.4911,3.4912,0,0,0,0,0,0,0,0,0,0,0,0,0,3.4776,3.4741,3.4816,3.4828,3.4829,3.4859,3.486,3.486,3.4871,3.4871,3.487,3.487,3.4909,3.4911,3.4913,3.4932,0,0,3.4919,3.4919,0,0,0,0,0,0,0,0,3.4774,3.4779,3.4826,3.4827,3.4829,3.486,3.4847,3.4884,3.4871,3.4855,3.487,3.487,3.4893,3.4896,3.4905,3.4934,3.4936,3.4919,3.492,3.4921,3.4921,0,0,0,0,0,0,0,3.4772,3.4777,3.4833,3.4826,3.4828,3.483,3.4834,3.4854,3.4876,3.4857,3.4858,3.4863,3.4894,3.4903,3.4906,3.4936,3.4919,3.492,3.4922,3.4922,3.4983,3.4984,0,0,0,0,0,0,3.4768,3.4775,3.4832,3.4834,3.48,3.4831,3.4837,3.485,3.4875,3.4879,3.4863,3.4863,3.49,3.4904,3.4907,3.4932,3.4921,3.4922,3.4924,3.4983,3.4983,3.4984,0,0,0,0,0,0,3.4766,3.4773,3.483,3.4805,3.4813,3.4833,3.4848,3.4851,3.486,3.488,3.4884,3.4869,3.49,3.4905,3.4926,3.4933,3.4923,3.4925,3.4982,3.4983,3.4984,3.4981,0,0,0,0,0,0,3.4764,3.4772,3.4781,3.4805,3.4814,3.4849,3.4848,3.4852,3.4864,3.4865,3.4887,3.489,3.49,3.4923,3.4928,3.4936,3.4927,3.4982,3.4983,3.4983,3.4981,3.4982,3.4982,0,0,0,0,0,3.4761,3.4777,3.4781,3.4788,3.4825,3.485,3.4855,3.4867,3.4865,3.4873,3.4886,3.4889,3.4932,3.4925,3.4931,3.4939,3.4981,3.4982,3.4983,3.498,3.4981,3.4982,0,0,0,0,0,0,3.4751,3.4781,3.4785,3.481,3.4828,3.4852,3.4862,3.4868,3.4885,3.4885,3.4898,3.4903,3.4923,3.4934,3.4926,3.496,3.4956,3.4959,3.4952,3.4954,3.4954,3.4951,3.4928,0,0,0,0,0,3.4752,3.4771,3.4795,3.4815,3.4824,3.4841,3.4853,3.4861,3.4879,3.4886,3.49,3.4916,3.4933,3.4944,3.4961,3.4982,3.4987,3.4991,3.4992,3.4992,3.4994,3.5006,3.5008,3.4987,3.4987,3.4987,0,0,3.4754,3.4772,3.4783,3.4813,3.4828,3.4846,3.4847,3.4866,3.4879,3.4888,3.491,3.4921,3.4939,3.4961,3.4971,3.497,3.5001,3.4994,3.4994,3.4995,3.5007,3.5009,3.5011,3.4988,3.4988,3.4988,0,0,3.4766,3.4782,3.4801,3.4815,3.4838,3.485,3.4854,3.4878,3.4886,3.4908,3.4915,3.493,3.4959,3.4972,3.4983,3.5001,3.5004,3.5006,3.501,3.5022,3.5023,3.5025,3.503,3.5032,3.5007,3.5007,3.5007,0,3.4765,3.4794,3.4809,3.4828,3.484,3.4851,3.4869,3.4882,3.4908,3.4916,3.4915,3.4952,3.4965,3.499,3.4994,3.5003,3.5007,3.5003,3.5022,3.5024,3.5025,3.5031,3.5033,3.5007,3.5007,3.5007,3.5007,0,3.4791,3.481,3.4822,3.4849,3.4863,3.4881,3.4898,3.491,3.4917,3.4929,3.4951,3.4968,3.4988,3.4994,3.5001,3.502,3.5019,3.502,3.5017,3.5027,3.5032,3.5035,3.5007,3.5007,3.5007,3.5007,0,0,3.4797,3.4833,3.4837,3.4849,3.4875,3.489,3.4908,3.493,3.494,3.4957,3.4972,3.4997,3.4999,3.501,3.5018,3.5028,3.5041,3.5028,3.5029,3.503,3.5063,3.5061,3.5064,3.5044,3.5044,3.5045,3.5061,0,3.4812,3.4847,3.4861,3.4889,3.4907,3.4917,3.4933,3.495,3.4961,3.4977,3.4989,3.5007,3.5007,3.5014,3.5025,3.5037,3.5048,3.5036,3.5057,3.5057,3.5051,3.5067,3.5066,3.508,3.5063,3.5064,3.5064,0,3.4834,3.4854,3.4884,3.4908,3.4916,3.493,3.4951,3.4967,3.4986,3.4993,3.5007,3.5015,3.5033,3.5029,3.5054,3.5046,3.5055,3.5062,3.5063,3.5065,3.5061,3.5068,3.5085,3.5087,3.5067,3.5067,3.5067,0,3.4835,3.4869,3.4892,3.4902,3.4931,3.494,3.4952,3.4971,3.4983,3.5001,3.5009,3.5028,3.5038,3.5052,3.5064,3.5061,3.5088,3.5085,3.5093,3.5093,3.5098,3.5097,3.5115,3.5105,3.5105,3.5105,3.5105,0,3.485,3.4868,3.4893,3.4906,3.4926,3.4942,3.4961,3.4973,3.499,3.5005,3.5015,3.5028,3.5044,3.506,3.5069,3.5088,3.5092,3.5098,3.51,3.5097,3.5096,3.5103,3.5102,3.5105,3.5105,3.5105,3.5105,0,3.4855,3.4872,3.4897,3.4923,3.493,3.4943,3.4964,3.4977,3.499,3.5009,3.5014,3.5033,3.5051,3.5065,3.5089,3.5095,3.5115,3.5118,3.5109,3.511,3.5117,3.5116,3.514,3.5143,3.5131,3.5131,3.5131,0,3.4863,3.4877,3.4905,3.4917,3.4929,3.4948,3.4961,3.4977,3.4989,3.5012,3.5022,3.5042,3.5059,3.5088,3.5102,3.5121,3.5123,3.513,3.5126,3.5122,3.5123,3.5122,3.5123,3.513,3.5131,3.5131,3.5131,0,3.4876,3.4884,3.4903,3.4925,3.4941,3.4958,3.4976,3.4985,3.5003,3.5017,3.5037,3.505,3.5075,3.5094,3.5114,3.5125,3.5131,3.5132,3.5135,3.5131,3.5126,3.5129,3.511,3.5131,3.5131,3.5131,3.5131,3.5131,3.4882,3.4895,3.4917,3.4938,3.4953,3.497,3.4983,3.4998,3.5016,3.5038,3.5046,3.5067,3.5085,3.5113,3.5124,3.5139,3.5139,3.5143,3.5144,3.5145,3.5144,3.5124,3.5143,3.5143,3.5143,3.5143,3.5143,0,3.4895,3.491,3.4929,3.4954,3.497,3.4976,3.4996,3.5009,3.5028,3.5045,3.5062,3.5085,3.5103,3.512,3.5139,3.5148,3.5151,3.5153,3.5152,3.5154,3.5143,3.5139,3.515,3.515,3.515,3.515,3.515,3.515,3.4903,3.4926,3.4937,3.4966,3.4981,3.5003,3.5013,3.5028,3.5042,3.5068,3.5084,3.5096,3.5113,3.5133,3.515,3.5154,3.5161,3.5161,3.5166,3.5156,3.5155,3.5154,3.515,3.5163,3.5163,3.5176,3.5176,3.5176]}]]